Wind_Speed
16 17 18 20 20 21 22 22 23 23 23 23 22 21 19 18 16 16 16 17 17 17 17 18 19 20 21 22 22 22 22 22 21 21 22 22 23 24 24 25 24 24 24 24
16 17 18 19 19 20 21 21 22 22 22 22 22 21 20 18 17 17 17 16 17 18 18 18 18 20 22 23 23 22 22 21 22 22 22 23 24 25 26 25 25 25 24 24
15 16 17 18 18 19 20 20 21 21 22 23 23 22 20 19 18 18 17 17 17 18 18 19 20 21 22 22 21 21 22 22 23 23 23 24 25 25 25 25 25 25 26 26
14 15 16 16 17 18 19 20 21 22 22 22 22 20 19 19 18 18 18 17 17 18 19 19 20 21 21 20 21 21 22 22 22 23 23 24 24 25 25 25 25 25 26 26
14 15 16 16 17 18 20 21 22 23 23 23 22 22 20 20 20 20 19 19 20 20 21 21 21 20 20 21 21 21 22 22 22 23 23 25 25 25 26 27 26 26 27 27
14 15 15 16 17 19 20 21 22 23 23 23 23 23 22 22 22 22 21 21 21 22 23 22 21 20 21 21 22 22 22 22 23 24 24 25 26 26 27 27 27 26 26 26
14 15 16 17 18 19 19 21 22 23 23 23 23 25 23 22 22 22 22 22 22 23 22 20 20 21 22 23 24 23 23 23 23 24 25 25 26 26 26 26 26 26 26 26
13 15 16 17 18 19 19 19 20 22 22 23 24 25 23 23 23 22 22 21 20 21 20 20 20 21 21 22 24 23 24 25 24 24 25 26 26 26 25 25 25 26 26 27
13 14 15 16 17 18 18 18 19 20 21 22 22 23 23 23 23 22 22 21 21 21 20 21 20 21 21 22 23 24 25 25 25 25 26 26 26 25 26 26 26 27 26 26
12 14 14 16 17 17 18 18 18 19 21 22 22 21 21 21 21 21 20 21 21 20 20 21 21 21 22 23 24 24 24 25 25 26 26 27 26 26 26 27 28 28 27 26
12 13 14 15 16 17 18 18 19 20 21 22 22 22 21 20 20 20 20 20 20 20 20 21 21 21 21 22 23 24 24 24 25 26 27 27 27 27 27 27 27 27 26 26
11 13 14 15 16 17 18 19 19 20 22 23 23 22 21 20 21 20 20 20 19 19 20 20 21 21 22 22 23 24 25 25 26 27 27 27 27 26 26 26 25 25 25 25
12 13 15 16 16 16 17 18 19 20 22 23 23 22 20 20 20 20 19 19 19 19 20 20 21 21 22 23 23 24 25 25 26 26 26 26 26 25 25 25 25 24 24 23
12 14 15 16 16 16 16 17 19 19 20 21 21 20 20 20 19 19 19 18 18 19 19 19 21 21 22 23 23 24 25 25 24 24 23 24 24 24 24 24 24 23 23 23
12 13 14 15 16 16 16 17 18 19 19 20 19 19 19 19 19 19 18 18 18 18 19 20 21 21 22 22 23 23 23 23 23 23 23 23 23 23 23 22 21 20 19 19
14 14 14 15 16 16 16 16 17 17 17 18 18 18 17 18 17 17 17 17 17 17 18 19 20 20 20 20 21 21 21 21 20 20 20 20 20 20 20 19 18 17 16 16
14 15 15 15 16 16 16 15 15 16 16 16 17 17 16 15 16 16 17 16 16 16 17 18 18 18 18 17 18 19 19 18 18 18 18 18 17 16 16 15 14 13 13 13
14 14 15 15 15 15 13 12 13 14 15 15 16 16 16 15 14 15 14 14 14 15 15 15 14 14 15 15 17 16 16 16 16 16 16 16 15 14 13 13 11 11 10 10
14 15 15 15 15 14 13 13 13 13 13 14 14 14 14 13 13 13 13 12 12 12 12 12 12 12 13 15 14 14 15 15 15 15 15 14 13 12 11 10 9 9 9 8
14 14 15 14 14 14 13 12 12 12 13 13 13 13 12 11 11 11 11 11 11 11 10 10 10 11 12 13 13 14 14 13 13 13 12 11 11 10 9 8 8 8 8 7
14 14 14 14 14 13 12 12 12 12 12 13 12 12 11 10 10 9 8 8 8 8 9 9 9 11 11 11 12 13 13 12 11 11 10 9 9 8 7 7 8 7 6 6
14 14 14 14 14 13 12 12 12 12 12 12 11 10 9 8 8 7 6 5 6 6 7 8 9 10 10 10 11 12 12 11 11 11 10 9 8 7 7 7 7 7 6 6
13 13 13 13 12 12 12 11 11 11 10 9 8 7 6 6 6 5 5 4 5 6 6 7 7 7 8 9 10 11 11 12 11 10 9 9 8 7 7 7 7 7 6 5
13 11 11 11 10 10 10 10 9 9 8 7 6 5 4 4 3 4 4 4 5 5 6 6 6 6 7 8 9 10 11 11 10 10 9 9 8 7 7 7 7 7 7 6
12 11 10 10 9 9 8 8 7 7 6 5 5 4 4 3 3 3 3 3 4 4 5 5 5 6 7 8 8 9 11 11 11 11 10 9 8 8 8 8 8 8 8 7
11 10 10 8 8 7 6 5 5 5 4 4 3 3 3 2 2 1 2 2 3 4 4 5 5 6 7 7 8 9 10 11 11 11 11 10 10 9 8 8 8 8 8 8
Wind_Direction
207 211 213 215 218 223 225 229 231 235 240 244 248 253 258 261 265 268 277 282 281 282 285 285 285 284 287 286 287 289 294 293 292 294 293 293 294 295 295 292 289 285 281 281
210 213 217 220 223 228 227 232 236 240 243 246 249 253 257 261 265 267 273 280 283 286 285 284 286 287 288 287 286 288 293 294 296 294 292 292 294 294 293 292 290 286 283 281
214 218 222 224 227 230 229 234 238 241 245 249 252 253 257 260 263 267 273 279 283 286 285 284 290 290 288 286 286 292 295 293 293 293 292 291 292 292 292 293 291 289 286 284
212 220 225 227 230 233 234 237 239 241 245 248 253 255 256 259 262 268 274 278 283 286 286 287 289 291 290 290 288 293 295 293 293 294 292 292 290 290 291 293 291 289 289 287
218 224 229 232 234 239 239 241 243 244 246 251 256 260 260 262 266 272 276 280 283 287 288 289 290 290 290 289 290 292 294 293 293 293 291 290 289 289 288 289 289 291 289 288
226 231 232 235 240 243 244 243 245 247 250 255 258 262 263 266 270 273 277 282 285 290 293 291 288 290 290 287 290 291 293 291 292 292 290 289 288 287 287 288 289 290 289 287
230 234 236 238 243 247 249 249 250 252 254 259 262 265 266 268 273 276 279 285 288 291 293 291 290 294 291 292 292 291 292 292 293 293 291 290 289 289 289 289 288 288 288 287
239 238 239 240 244 248 251 253 256 260 263 265 266 268 270 273 275 278 281 284 287 292 291 291 292 294 294 294 294 292 291 293 293 292 292 292 290 290 291 292 290 290 289 287
242 240 241 243 246 248 250 253 255 260 265 269 270 272 273 275 275 278 279 280 285 288 290 293 292 291 294 296 295 294 293 291 290 291 292 292 292 292 291 291 290 291 289 287
242 241 242 244 247 250 252 254 258 264 270 274 275 276 277 277 276 278 278 280 284 286 289 293 294 293 293 295 296 295 292 290 290 292 294 295 293 292 291 289 287 288 287 286
247 245 243 246 250 255 255 257 261 266 270 274 278 279 281 280 279 280 281 284 285 288 292 293 292 292 294 294 295 295 296 294 293 294 295 295 294 292 290 289 287 287 286 285
253 252 250 254 259 260 260 261 263 267 271 274 277 280 281 281 280 281 282 284 285 288 292 293 296 296 295 297 298 299 299 297 296 296 297 296 294 292 290 288 287 287 287 285
257 258 258 259 262 266 265 265 266 270 272 274 278 282 281 283 283 281 282 283 285 287 291 294 296 296 296 297 299 299 298 297 297 296 296 296 293 290 289 289 288 287 286 284
260 261 263 265 268 270 268 267 268 271 273 277 280 282 282 284 283 282 283 285 287 286 288 292 295 295 298 298 298 299 298 298 299 299 298 297 295 293 291 291 291 289 287 285
259 263 266 268 269 271 270 269 271 271 273 276 281 283 284 283 282 283 283 284 285 286 288 292 294 296 298 298 299 300 302 301 302 301 300 300 299 298 295 293 294 293 290 288
258 262 268 271 272 275 277 272 271 273 276 279 282 284 282 281 281 282 285 287 288 288 290 293 295 298 300 302 303 303 304 305 304 304 304 305 304 303 302 298 297 297 296 293
260 265 271 276 278 279 280 278 274 274 278 281 282 285 282 278 280 283 286 289 292 292 295 297 298 300 301 307 310 309 311 311 310 309 310 311 311 310 310 308 303 300 300 297
260 265 270 275 278 278 282 280 279 278 279 283 286 287 286 282 281 283 287 291 295 299 300 300 302 305 308 315 319 318 319 316 315 313 313 315 315 315 314 311 310 309 308 307
259 264 269 274 277 278 279 283 282 282 282 286 288 291 289 282 278 282 287 292 296 299 303 307 310 315 318 322 325 324 321 320 320 320 320 318 317 316 317 316 311 315 318 314
260 265 271 276 279 280 281 284 285 283 284 288 289 293 291 284 281 284 289 293 297 301 306 311 315 321 324 329 333 334 330 327 326 327 327 325 324 325 325 324 322 319 317 317
261 265 270 276 280 284 286 287 288 287 289 289 290 292 292 289 286 285 290 296 303 308 316 321 321 325 328 333 338 339 339 339 340 340 340 339 337 337 338 337 336 336 334 334
262 267 270 277 280 284 287 286 286 288 290 291 291 292 289 287 287 285 291 301 312 315 322 326 327 331 335 338 343 347 351 352 351 351 352 354 354 353 349 346 347 349 349 350
263 270 272 274 277 282 283 286 287 286 291 293 291 292 287 286 286 282 290 307 321 327 330 333 337 342 346 349 353 358 1 2 0 3 6 6 4 1 3 4 6 4 359 357
260 269 271 270 275 280 280 283 288 290 291 289 285 283 279 277 280 288 294 304 319 330 333 337 344 350 354 357 3 4 6 9 14 15 14 14 12 10 11 11 14 14 12 10
260 265 266 268 272 277 279 285 292 293 293 288 283 273 266 270 274 287 299 310 326 337 341 343 349 354 356 0 6 10 15 18 21 22 20 19 20 22 22 22 22 20 17 16
256 260 259 262 268 271 273 282 289 290 289 283 279 272 269 263 243 263 294 320 339 348 348 351 354 358 6 14 14 15 18 21 23 23 24 25 27 27 24 23 23 21 21 20
Height
5831 5835 5836 5839 5841 5844 5847 5849 5852 5854 5855 5856 5857 5858 5859 5859 5860 5861 5861 5860 5859 5858 5857 5857 5856 5855 5854 5853 5851 5850 5848 5846 5844 5842 5841 5839 5837 5836 5834 5832 5830 5828 5827 5826
5831 5833 5835 5837 5840 5842 5845 5847 5849 5851 5852 5853 5854 5855 5856 5856 5857 5857 5857 5857 5856 5854 5853 5852 5851 5851 5849 5848 5847 5845 5843 5841 5839 5837 5836 5834 5832 5830 5828 5826 5824 5822 5821 5820
5830 5832 5833 5836 5838 5840 5843 5845 5846 5848 5849 5850 5851 5852 5853 5853 5853 5853 5853 5853 5852 5851 5849 5848 5847 5846 5844 5843 5841 5839 5838 5836 5834 5832 5830 5829 5827 5825 5822 5820 5818 5816 5815 5814
5829 5830 5832 5834 5836 5838 5840 5842 5844 5845 5846 5846 5848 5848 5850 5849 5850 5850 5849 5849 5848 5847 5845 5844 5842 5841 5839 5838 5836 5834 5833 5831 5829 5827 5825 5823 5821 5819 5817 5814 5812 5811 5809 5808
5828 5829 5831 5833 5835 5836 5838 5839 5841 5842 5842 5843 5844 5845 5846 5846 5846 5846 5845 5845 5844 5842 5841 5839 5838 5837 5835 5833 5832 5830 5828 5826 5823 5821 5819 5817 5815 5813 5811 5809 5807 5805 5803 5802
5826 5828 5829 5831 5833 5834 5835 5837 5837 5838 5839 5840 5840 5841 5841 5841 5842 5842 5841 5840 5839 5838 5836 5835 5833 5832 5830 5829 5827 5825 5823 5821 5819 5816 5814 5812 5810 5808 5805 5803 5801 5799 5797 5796
5825 5826 5828 5829 5830 5832 5833 5834 5835 5835 5835 5836 5837 5836 5837 5837 5837 5837 5836 5836 5835 5833 5831 5830 5828 5827 5825 5823 5822 5820 5818 5816 5814 5811 5809 5806 5804 5801 5799 5797 5795 5793 5791 5789
5823 5824 5825 5826 5828 5829 5830 5831 5832 5832 5832 5832 5832 5831 5833 5832 5832 5831 5831 5831 5830 5828 5827 5825 5824 5822 5820 5818 5816 5815 5812 5810 5808 5805 5803 5800 5797 5795 5793 5791 5789 5787 5785 5783
5820 5822 5822 5823 5824 5826 5826 5827 5828 5828 5827 5827 5827 5828 5828 5827 5827 5826 5826 5825 5825 5823 5822 5820 5819 5817 5815 5813 5811 5809 5807 5804 5802 5799 5796 5794 5791 5789 5787 5784 5782 5780 5778 5776
5818 5819 5820 5820 5821 5822 5823 5823 5824 5824 5823 5823 5823 5823 5823 5822 5822 5821 5821 5820 5819 5818 5816 5815 5814 5812 5810 5808 5805 5803 5800 5798 5795 5793 5790 5787 5785 5782 5780 5778 5776 5774 5771 5770
5815 5816 5818 5818 5818 5819 5819 5820 5820 5820 5819 5819 5818 5821 5819 5818 5817 5816 5816 5815 5814 5813 5811 5810 5808 5807 5804 5802 5800 5797 5794 5791 5789 5786 5783 5781 5778 5776 5773 5771 5769 5766 5765 5763
5812 5813 5814 5815 5815 5815 5815 5816 5816 5816 5816 5815 5814 5817 5814 5813 5812 5811 5811 5810 5809 5808 5807 5805 5803 5802 5800 5797 5794 5791 5788 5785 5783 5780 5777 5774 5771 5769 5766 5764 5762 5760 5758 5756
5810 5811 5811 5812 5814 5813 5812 5812 5812 5812 5811 5810 5809 5812 5809 5808 5807 5807 5806 5805 5804 5804 5802 5800 5799 5797 5794 5792 5789 5786 5783 5780 5776 5773 5770 5767 5764 5762 5760 5757 5755 5753 5752 5750
5807 5807 5808 5809 5808 5808 5808 5808 5808 5807 5806 5805 5805 5805 5804 5803 5802 5802 5801 5801 5800 5799 5797 5795 5794 5791 5789 5787 5783 5780 5776 5773 5770 5767 5763 5761 5758 5755 5753 5750 5748 5746 5745 5744
5804 5804 5804 5804 5804 5804 5804 5804 5803 5802 5802 5801 5801 5800 5799 5798 5797 5797 5796 5796 5795 5794 5792 5791 5789 5786 5784 5781 5778 5774 5771 5767 5764 5761 5758 5755 5752 5749 5747 5744 5742 5740 5739 5738
5801 5801 5801 5801 5800 5800 5799 5799 5798 5798 5797 5797 5796 5795 5794 5793 5792 5792 5792 5791 5791 5789 5788 5786 5784 5781 5778 5775 5772 5769 5766 5762 5759 5756 5752 5749 5746 5743 5741 5739 5737 5736 5734 5733
5798 5798 5798 5797 5797 5796 5795 5795 5794 5794 5793 5793 5792 5792 5790 5789 5788 5788 5787 5787 5786 5785 5783 5781 5779 5776 5774 5771 5768 5764 5761 5758 5754 5751 5748 5744 5742 5739 5737 5735 5733 5732 5730 5729
5795 5795 5795 5794 5795 5793 5795 5792 5791 5791 5790 5789 5788 5787 5786 5785 5785 5784 5783 5783 5782 5780 5779 5776 5774 5772 5770 5767 5763 5760 5757 5753 5750 5747 5744 5741 5738 5736 5734 5732 5730 5729 5728 5726
5791 5792 5791 5791 5790 5790 5790 5789 5788 5788 5787 5786 5784 5783 5782 5782 5781 5780 5780 5779 5778 5777 5775 5773 5771 5769 5766 5763 5760 5757 5753 5750 5747 5743 5740 5738 5736 5734 5731 5730 5728 5727 5726 5725
5788 5788 5789 5788 5787 5787 5788 5787 5785 5785 5784 5783 5781 5780 5779 5778 5778 5778 5776 5775 5774 5773 5772 5770 5768 5766 5763 5761 5758 5754 5751 5747 5744 5741 5738 5735 5733 5731 5730 5728 5727 5726 5724 5723
5784 5785 5785 5784 5783 5783 5784 5783 5783 5783 5782 5780 5778 5777 5776 5775 5775 5775 5773 5772 5771 5770 5769 5767 5766 5763 5761 5758 5756 5752 5749 5745 5742 5739 5736 5734 5732 5730 5729 5727 5726 5725 5724 5723
5781 5781 5781 5781 5781 5783 5781 5780 5780 5779 5777 5776 5775 5774 5773 5772 5772 5772 5771 5770 5770 5768 5767 5765 5763 5761 5759 5757 5754 5751 5747 5744 5741 5738 5735 5733 5731 5730 5728 5727 5725 5724 5723 5722
5777 5778 5778 5778 5780 5778 5777 5777 5776 5775 5774 5773 5772 5771 5771 5770 5770 5770 5769 5769 5768 5767 5766 5764 5762 5760 5758 5755 5753 5750 5747 5744 5741 5738 5736 5734 5732 5730 5729 5727 5726 5725 5724 5723
5775 5774 5774 5775 5775 5775 5774 5774 5773 5772 5771 5770 5770 5769 5769 5769 5769 5768 5768 5767 5767 5766 5764 5763 5761 5759 5757 5755 5753 5750 5747 5744 5741 5739 5737 5735 5733 5731 5730 5728 5727 5726 5724 5723
5771 5771 5771 5771 5772 5772 5771 5771 5770 5770 5769 5768 5767 5767 5767 5767 5767 5767 5767 5766 5766 5765 5763 5762 5760 5759 5757 5755 5753 5751 5748 5745 5743 5740 5738 5736 5734 5733 5731 5729 5728 5727 5726 5724
5768 5769 5769 5769 5770 5769 5769 5769 5768 5767 5767 5766 5766 5766 5766 5766 5766 5766 5766 5765 5765 5764 5763 5762 5760 5759 5757 5756 5754 5751 5749 5747 5744 5742 5740 5738 5736 5734 5732 5731 5729 5728 5727 5726